Lapse_Rate
6.2 6.1 6.1 6.6 6.3 5.9 5.7 5.4 5.5 5.6 5.6 5.4 6.1 5.9 5.6 5.5 5.5 5.5 5.3 5.2 4.9 4.9 5.0 4.9 4.9 4.8 4.6 4.8 5.0 4.9 4.6 4.5 4.5 4.7 5.0 5.0 4.9 4.8 4.9 5.1 5.3 5.3 5.4 5.6 5.6 5.8 5.9 6.1 6.3
6.4 6.2 6.4 6.2 5.7 5.7 5.3 5.6 5.4 5.6 5.5 5.8 5.7 5.4 5.4 5.4 5.2 5.4 5.5 5.1 4.9 4.9 5.0 4.9 5.1 5.1 4.8 4.9 5.0 5.0 4.8 4.6 4.4 4.5 4.9 5.0 5.0 4.9 4.9 5.1 5.3 5.4 5.5 5.6 5.6 5.9 5.8 5.9 6.2
6.2 6.1 6.5 5.6 5.8 5.6 5.2 5.4 5.7 5.5 5.5 5.5 5.2 5.5 5.8 6.0 5.5 5.6 6.0 5.6 5.4 5.1 5.1 5.2 5.4 5.4 5.2 5.1 5.0 5.1 4.9 4.7 4.5 4.5 4.8 4.9 4.9 5.0 5.0 5.1 5.3 5.4 5.5 5.8 5.8 5.8 5.7 5.7 5.8
6.3 6.5 5.7 6.0 5.7 5.7 5.6 5.4 6.2 6.1 5.9 5.8 5.7 5.7 5.6 5.3 5.6 5.8 6.4 6.0 5.7 5.8 5.5 5.5 5.5 5.5 5.4 5.4 5.2 5.1 5.0 4.9 4.6 4.5 4.8 4.9 5.0 5.0 5.0 5.0 5.2 5.3 5.5 5.8 5.8 5.7 5.5 5.5 5.6
5.8 6.0 5.8 6.7 5.8 5.8 6.0 6.2 6.2 6.2 6.0 5.7 5.8 5.8 5.5 5.1 5.2 6.0 6.2 6.0 6.5 6.3 6.0 5.7 5.6 5.5 5.4 5.4 5.4 5.4 5.0 4.9 4.9 4.6 4.7 4.9 4.9 5.0 5.0 5.1 5.1 5.1 5.4 5.5 5.8 5.8 5.6 5.6 5.7
6.2 6.2 6.6 6.6 6.1 5.8 6.0 6.2 6.4 6.2 6.4 6.3 6.4 6.3 5.8 5.5 5.7 5.8 6.4 6.2 6.7 6.5 6.2 6.1 5.9 5.7 5.6 5.5 5.2 5.5 5.5 4.9 5.0 5.2 5.1 5.0 5.0 5.0 5.1 5.2 5.2 5.1 5.2 5.4 5.6 5.7 5.7 5.6 5.7
6.9 6.5 7.4 6.8 6.4 6.4 6.0 6.2 6.3 6.1 5.9 6.2 6.3 6.7 5.9 5.4 5.9 6.2 6.8 6.5 6.7 6.6 6.4 6.2 6.0 6.0 5.8 5.7 5.5 5.4 5.6 5.4 5.3 5.2 5.3 5.5 5.2 5.0 5.1 5.1 5.3 5.4 5.3 5.3 5.3 5.5 5.6 5.6 5.7
6.8 6.5 7.6 7.1 6.9 6.7 6.6 6.2 5.8 6.4 6.0 6.2 6.2 6.6 6.4 6.2 6.3 6.9 7.2 7.2 6.9 6.9 6.6 6.3 6.2 6.1 6.0 5.8 5.7 5.6 5.8 5.8 5.6 5.1 5.3 5.5 5.4 5.2 5.2 5.2 5.2 5.3 5.5 5.4 5.4 5.4 5.4 5.5 5.6
7.4 8.0 7.6 7.5 7.2 6.8 6.7 6.4 6.3 6.5 6.8 6.2 6.3 6.1 6.6 6.6 6.9 7.4 7.4 7.4 7.1 7.0 6.6 6.5 6.3 6.1 5.9 5.7 5.7 5.8 5.6 5.8 5.7 5.5 5.5 5.6 5.4 5.3 5.2 5.3 5.2 5.2 5.2 5.3 5.3 5.4 5.3 5.4 5.4
8.1 8.2 7.6 7.5 7.2 7.1 6.8 6.7 6.6 6.6 6.3 6.3 6.4 6.5 6.8 6.7 5.7 6.6 7.2 7.2 7.2 6.8 6.7 6.5 6.1 6.2 5.6 5.7 5.9 5.9 5.7 5.6 5.7 5.3 5.3 5.3 5.4 5.3 5.4 5.3 5.3 5.2 5.3 5.2 5.1 5.2 5.3 5.3 5.2
8.7 8.0 7.9 7.4 7.1 7.1 6.9 6.7 6.7 6.8 6.7 6.8 7.0 7.0 6.9 6.7 6.4 6.3 6.8 6.4 6.8 6.9 7.1 6.8 6.5 6.2 6.0 6.2 6.0 5.9 5.6 5.6 5.8 5.3 5.5 5.3 5.3 5.1 5.5 5.5 5.3 5.3 5.2 5.3 5.2 5.1 5.2 5.2 5.2
8.3 7.9 7.6 7.4 7.2 7.0 6.9 6.8 6.7 6.6 6.7 6.7 6.9 6.7 6.7 6.6 6.6 6.4 6.6 6.9 7.0 7.0 7.2 6.8 6.6 6.5 5.9 5.7 5.9 5.6 5.6 5.9 6.2 5.6 5.6 5.5 5.4 5.6 5.5 5.4 5.4 5.3 5.3 5.3 5.4 5.4 5.3 5.1 5.1
7.9 8.1 7.7 7.4 7.2 7.0 6.9 6.9 6.9 6.8 6.7 6.7 6.8 6.8 6.8 6.6 6.7 6.6 6.9 6.9 7.1 7.0 7.0 6.5 6.2 6.4 5.6 5.8 5.8 6.1 6.0 6.2 5.7 5.4 5.6 5.7 5.7 5.6 5.8 5.6 5.5 5.4 5.2 5.4 5.4 5.2 5.3 5.0 5.0
8.1 7.8 7.7 7.5 7.2 7.2 7.0 7.1 7.3 6.8 6.7 6.6 6.6 6.4 6.5 6.7 6.9 6.8 6.7 6.7 7.2 7.1 6.5 6.5 6.1 6.0 5.9 6.0 5.7 5.8 5.6 5.9 5.1 5.9 5.6 5.7 5.6 5.6 5.7 5.7 5.7 5.6 5.3 5.2 5.2 5.2 5.2 5.2 5.3
8.1 7.9 7.7 7.6 7.5 7.3 7.2 7.2 7.1 7.4 6.7 6.6 6.5 6.3 5.9 5.8 6.2 6.9 6.8 6.8 6.8 6.7 6.4 6.5 6.2 6.0 5.9 5.8 5.9 5.9 5.8 5.2 5.4 5.5 5.7 5.8 5.5 5.6 5.5 5.4 5.7 5.6 5.5 5.5 5.6 5.5 5.4 5.3 5.2
8.6 8.3 7.7 7.9 7.9 7.9 7.6 7.4 7.0 7.4 7.2 6.7 6.4 6.2 5.6 5.7 5.8 6.1 6.6 7.2 6.8 6.4 6.8 6.8 6.5 6.1 5.9 5.8 5.8 5.6 5.5 5.6 5.3 5.6 5.9 5.6 5.7 5.5 5.2 5.4 5.7 5.6 5.5 5.2 5.3 5.5 5.3 5.3 5.3
8.4 8.4 8.0 7.8 7.6 7.9 8.2 7.9 7.6 7.9 7.6 7.0 6.6 6.2 5.9 5.8 5.8 5.7 6.0 6.3 6.5 6.4 6.4 6.4 6.5 6.0 6.1 5.7 5.8 5.6 5.5 5.8 5.6 5.8 5.6 5.7 5.8 5.6 5.6 5.6 5.7 5.8 5.7 5.3 5.2 5.3 5.4 5.2 5.1
8.1 7.9 7.8 7.7 8.3 7.9 8.6 8.4 8.1 7.9 7.8 7.4 7.0 6.5 6.1 6.0 5.9 5.8 5.8 5.7 5.7 6.2 6.3 6.1 6.4 6.5 6.2 6.0 6.0 5.7 5.6 5.7 5.9 6.0 5.8 5.8 5.7 5.7 5.7 5.7 5.7 5.4 5.5 5.5 5.4 5.2 5.3 5.1 5.0
8.0 7.9 8.0 8.0 8.2 7.2 7.1 8.1 8.3 7.9 7.8 7.7 7.3 6.8 6.4 6.1 6.0 5.9 5.8 5.5 5.7 6.1 6.1 6.2 6.1 6.4 6.2 6.1 6.2 6.1 5.8 5.8 5.8 6.2 6.0 5.7 5.7 5.9 6.0 5.7 5.6 5.3 5.2 5.2 5.3 5.3 5.1 5.1 5.3
8.0 7.3 7.9 7.2 8.0 6.8 7.5 5.6 8.0 7.7 7.5 7.5 7.6 7.1 6.6 6.2 6.0 5.9 5.8 5.5 5.5 5.7 6.0 5.7 5.9 6.0 6.3 6.1 6.2 6.2 6.3 6.2 6.2 6.0 5.9 5.9 5.9 6.0 6.0 5.8 5.7 5.8 5.4 5.3 5.3 5.4 5.4 5.6 5.7
8.8 7.6 7.8 7.8 6.5 7.6 6.8 6.0 8.2 7.5 6.9 7.4 7.2 7.2 6.8 6.6 6.1 6.0 5.9 5.7 5.4 5.5 6.0 5.8 6.1 6.4 6.1 5.8 6.1 6.3 5.6 5.7 6.1 6.3 5.9 6.0 6.4 6.3 6.0 6.1 6.0 5.6 5.4 5.5 5.4 5.7 5.4 5.3 5.6
8.9 8.4 8.1 7.6 7.3 8.3 8.2 6.5 6.8 8.3 7.7 7.3 7.5 7.2 6.9 6.7 6.5 6.3 6.1 5.9 5.7 5.7 6.0 5.9 6.2 6.2 6.0 6.2 6.3 6.6 6.3 6.3 6.3 6.2 6.0 6.1 6.3 6.2 6.0 6.1 5.9 5.6 5.3 5.4 5.3 5.3 5.8 5.7 5.6
9.7 9.5 9.3 7.7 8.7 9.1 8.9 8.8 7.5 7.6 8.1 7.7 7.6 7.5 7.3 7.0 6.8 6.6 6.4 6.3 6.0 6.0 6.1 6.0 6.1 6.2 6.0 6.2 6.5 6.6 6.4 6.4 6.3 6.2 5.8 5.2 6.1 6.1 5.8 6.2 5.8 5.6 5.6 5.6 5.4 5.6 5.8 5.8 5.7
9.7 9.6 9.7 9.7 9.7 9.0 9.2 8.8 8.2 8.9 8.8 8.5 8.1 7.6 7.3 7.3 7.2 6.9 6.8 6.5 6.1 6.1 6.0 5.9 6.1 6.2 6.2 6.3 6.6 6.6 6.4 6.0 6.3 6.2 6.1 5.8 5.7 6.0 5.9 6.0 6.0 5.6 5.7 5.6 5.4 5.9 6.0 6.0 5.9
9.7 9.5 9.2 8.5 8.2 7.7 8.4 8.4 8.1 8.9 8.7 8.2 8.7 7.8 7.6 7.5 7.6 7.4 7.1 6.6 6.3 6.2 6.3 6.2 6.2 6.1 6.2 6.1 6.4 6.5 6.3 6.4 6.4 5.9 6.1 6.5 6.3 5.2 5.5 6.1 6.4 5.7 5.9 6.1 6.1 6.3 6.2 5.8 5.9
9.6 9.4 9.0 8.0 6.9 8.4 9.0 8.0 8.2 8.6 8.7 8.1 8.5 7.9 7.7 7.9 7.8 7.6 7.4 7.1 6.5 6.4 6.5 6.7 6.6 6.5 6.1 6.2 6.3 6.6 6.3 6.1 5.9 6.2 6.3 6.6 6.1 6.1 6.3 6.2 6.6 6.2 5.8 6.6 6.6 6.4 6.1 6.0 6.0
9.2 9.2 9.3 9.4 8.9 8.9 9.0 8.5 8.5 9.0 8.5 8.1 8.3 8.1 8.2 8.3 7.9 7.8 7.6 7.3 6.6 6.6 6.7 6.8 7.0 6.6 6.4 6.3 6.5 6.7 6.5 6.1 5.9 6.4 6.3 6.3 6.2 5.8 6.0 6.2 6.2 6.2 6.2 6.2 6.2 6.2 6.3 6.2 6.2
9.2 9.1 9.2 9.6 7.5 7.7 8.7 8.8 8.7 8.8 8.5 9.2 9.1 8.5 8.6 8.3 8.3 8.0 7.7 7.6 7.0 6.8 6.7 6.7 6.8 6.8 6.6 6.5 6.8 6.7 6.6 6.3 6.3 6.4 6.2 6.2 6.2 6.3 6.3 5.8 6.3 6.3 6.3 6.4 6.5 6.5 6.6 6.6 6.4
9.4 9.2 9.3 9.2 9.4 7.9 7.3 8.3 8.8 9.4 9.1 9.1 8.9 7.6 8.5 9.2 8.8 8.1 7.9 7.6 7.3 6.9 6.8 6.7 6.8 6.7 6.6 6.9 7.0 7.1 7.1 6.7 6.9 6.4 6.2 5.9 5.9 6.1 6.1 6.3 6.0 6.2 6.5 6.6 6.5 6.6 6.6 6.6 6.4
9.6 9.6 9.4 9.2 8.7 9.4 9.4 8.4 9.3 9.2 8.8 8.8 8.9 9.3 9.4 9.3 9.2 8.8 8.0 7.7 7.4 7.1 7.0 7.0 7.2 7.1 7.0 7.3 7.4 7.3 7.2 7.2 6.8 6.5 6.2 5.9 5.8 6.2 6.4 6.3 6.4 6.5 6.7 6.6 6.6 6.5 6.6 6.6 6.5
Wind_Speed
10 8 1 2 2 3 3 6 10 10 5 3 10 10 11 9 5 9 12 19 18 14 17 16 16 16 14 14 12 13 12 13 15 15 14 14 13 12 11 12 14 16 15 14 15 15 16 14 14
10 7 1 2 3 6 3 7 11 11 11 8 14 15 10 8 4 15 14 21 21 19 17 16 17 17 15 12 12 11 14 14 13 13 15 15 12 12 11 11 13 15 16 15 13 15 15 12 12
11 5 2 3 2 5 7 12 16 12 10 5 6 12 9 14 14 11 21 21 23 18 19 19 18 17 15 12 12 12 13 12 11 12 14 14 14 13 13 15 16 16 16 15 14 14 12 10 10
4 3 4 1 13 9 16 15 15 9 6 7 7 11 7 6 11 16 20 20 18 17 21 21 19 18 17 12 12 11 12 11 9 10 11 12 15 14 15 17 17 17 17 15 15 13 10 9 8
3 4 3 7 15 14 13 16 14 9 6 14 14 12 9 9 7 17 22 21 19 14 19 21 20 18 17 14 11 8 12 12 9 9 8 9 12 14 16 17 16 18 17 15 14 12 10 7 6
2 3 2 8 15 13 12 17 14 10 15 17 16 13 6 9 6 6 18 19 19 17 19 19 20 17 16 14 14 10 9 10 8 7 6 7 9 11 12 15 14 16 16 15 12 10 8 6 4
3 7 6 13 17 11 11 18 14 15 16 14 14 10 13 16 12 9 13 17 17 19 17 17 16 16 16 15 12 11 8 7 6 6 6 7 6 7 10 13 13 14 14 14 12 8 5 3 2
3 3 4 12 13 12 13 9 13 20 15 19 16 7 19 17 18 13 16 17 17 14 14 14 15 15 14 14 13 12 10 8 7 6 5 7 5 5 10 10 13 14 14 13 10 7 4 2 3
5 4 4 8 11 7 15 9 17 14 19 11 13 13 18 21 19 14 15 16 15 13 13 15 14 16 17 17 15 14 12 10 10 8 8 5 5 4 9 12 13 14 14 14 12 9 6 6 6
7 3 11 9 10 5 17 15 15 14 16 18 19 16 17 15 12 12 13 13 14 15 14 14 15 16 17 15 16 16 14 14 13 10 12 9 4 7 9 13 15 15 14 14 13 11 9 7 9
4 8 10 12 11 9 15 17 13 10 14 24 25 23 21 15 13 9 8 11 10 13 12 15 15 18 16 11 12 11 12 13 14 15 16 13 9 10 11 14 14 15 15 13 13 12 10 10 11
12 15 13 10 8 7 10 11 12 12 18 24 24 23 20 20 17 15 11 10 11 8 7 9 8 7 11 13 10 12 10 11 12 11 16 14 9 9 9 10 12 12 14 12 14 12 13 14 14
6 13 12 9 10 10 13 11 8 12 25 24 24 21 19 17 16 16 12 12 11 9 7 5 6 8 9 6 7 8 8 9 13 15 16 13 9 5 10 10 12 12 15 14 11 12 10 10 9
12 12 14 11 8 11 11 6 8 12 24 24 24 20 17 18 20 17 13 15 13 9 8 7 7 7 9 5 4 4 7 8 8 12 17 15 13 10 8 6 8 11 14 13 14 9 8 7 7
16 12 10 9 8 6 9 7 6 10 21 24 22 19 18 17 17 19 15 14 17 12 10 8 9 7 7 6 6 7 7 9 6 9 16 15 15 12 10 6 5 10 13 11 12 8 7 4 5
7 6 3 8 10 4 8 8 8 10 12 20 20 17 16 14 14 19 18 17 16 13 8 11 11 9 7 6 5 4 4 5 5 6 13 15 12 13 10 4 4 10 12 9 5 3 3 3 3
7 0 3 7 2 1 3 3 2 9 9 12 15 15 14 12 9 15 21 18 17 14 12 10 9 12 10 7 6 6 7 6 11 16 10 11 12 13 9 3 7 10 7 4 4 2 3 1 1
7 5 5 4 6 11 1 5 3 10 11 9 9 10 9 10 8 11 21 18 16 13 13 12 8 14 10 6 5 3 3 4 8 11 12 14 11 9 8 6 8 9 4 3 3 3 2 2 3
11 9 7 8 14 18 18 7 2 4 9 10 9 9 9 9 9 11 10 17 14 17 14 14 8 13 9 4 4 3 4 4 1 3 13 12 10 10 8 3 4 7 4 4 3 3 3 2 2
18 11 5 10 23 14 16 2 23 23 16 12 11 13 12 9 9 11 9 9 15 16 14 9 9 12 11 6 4 3 3 2 4 4 5 6 11 10 7 5 4 5 4 5 4 4 2 2 4
14 21 20 15 21 17 11 1 17 15 18 15 13 16 16 15 11 14 10 9 15 16 13 9 9 13 10 8 3 2 5 3 1 2 3 3 11 11 9 5 6 5 4 5 6 6 6 3 4
11 25 28 23 13 7 22 7 13 17 15 15 19 17 17 17 13 17 14 11 16 15 15 12 10 10 8 8 3 7 5 3 4 3 4 6 5 8 9 7 5 5 5 5 4 3 4 3 4
7 24 26 32 13 6 7 6 5 7 15 8 9 19 20 20 19 21 19 16 14 18 16 14 12 10 7 7 5 5 5 3 3 4 9 10 4 12 10 9 7 5 3 3 5 2 4 3 3
4 6 6 6 4 5 5 6 5 3 8 7 6 8 12 20 21 20 21 19 17 18 17 15 14 14 9 8 7 7 8 6 6 2 3 4 4 8 14 5 6 6 4 3 4 4 5 4 3
4 5 4 5 4 2 12 8 6 11 11 11 11 9 8 22 20 19 21 19 17 20 19 16 17 14 13 11 8 8 7 7 8 5 5 7 5 2 5 6 8 3 5 6 4 5 5 4 3
8 8 5 6 6 4 8 8 6 18 18 11 11 7 12 22 19 20 20 20 17 22 20 20 18 16 14 13 10 7 8 5 5 8 8 7 8 7 8 6 4 10 6 6 6 3 4 4 5
9 6 8 4 8 2 5 5 4 8 18 17 18 9 18 14 20 22 18 18 18 20 20 20 19 16 15 13 10 8 7 7 9 12 9 7 7 7 8 7 1 4 14 5 5 4 5 5 5
10 8 4 3 5 5 6 7 6 10 20 15 14 17 24 16 19 19 17 18 19 19 16 19 20 18 16 12 11 9 8 7 12 9 10 9 5 3 6 3 3 5 11 6 5 2 5 4 4
3 5 5 2 4 3 1 5 8 9 7 3 13 18 21 19 16 18 17 15 19 17 16 18 17 15 13 11 10 9 8 8 11 9 8 8 4 6 6 5 5 8 8 4 3 5 4 5 5
9 11 10 5 9 4 5 4 8 13 12 17 29 13 17 20 17 19 18 14 19 15 17 18 16 15 14 12 11 9 10 10 11 11 10 8 8 6 7 7 6 7 8 7 6 6 4 6 3
Wind_Direction
157 163 180 256 60 88 47 107 122 116 77 80 54 72 88 44 49 118 135 120 126 129 139 138 132 125 118 111 107 96 90 75 77 79 79 102 106 100 96 108 113 113 112 110 114 107 107 110 115
158 167 30 254 111 94 86 130 124 104 110 112 94 101 75 75 49 113 116 132 129 135 134 135 134 128 122 121 113 105 92 82 74 76 78 79 99 104 102 107 114 117 115 114 111 110 109 114 113
160 142 250 198 194 121 124 113 113 114 129 129 118 92 87 128 143 135 138 135 137 134 135 140 135 129 126 122 109 103 95 88 79 73 75 71 90 102 103 117 119 122 116 114 116 114 116 116 120
150 216 273 195 97 112 125 124 109 105 48 52 112 83 87 108 143 131 143 140 128 129 134 139 138 135 130 128 118 113 103 95 88 88 77 73 69 108 106 113 121 125 117 115 114 118 116 119 128
74 268 219 110 108 117 133 127 130 126 107 106 110 115 108 130 134 120 125 127 125 127 139 141 140 141 137 135 127 129 115 109 99 87 82 81 78 88 111 116 126 123 120 118 117 116 115 114 103
110 293 149 114 127 130 135 133 136 126 133 127 96 117 104 118 125 152 133 130 132 138 140 143 143 144 145 145 140 126 123 117 117 104 98 91 93 95 116 125 132 130 130 122 119 117 114 109 73
233 326 142 123 124 124 136 146 153 143 149 140 126 118 138 153 176 172 127 134 136 135 142 142 144 151 153 147 146 142 146 146 139 141 130 109 103 119 120 139 143 142 140 135 131 129 126 107 74
257 147 287 133 133 141 146 139 151 160 156 128 135 151 159 165 171 170 134 135 135 141 144 148 150 154 157 157 163 165 170 186 183 176 149 111 102 136 145 147 155 152 154 153 151 152 163 258 290
219 222 137 115 105 151 150 158 163 137 136 161 193 144 154 163 171 156 142 143 145 152 154 153 162 171 175 179 180 184 191 197 206 193 172 121 162 167 188 163 167 168 165 166 170 176 201 249 273
205 66 67 103 116 154 144 128 126 152 157 121 122 136 159 159 128 135 143 142 154 160 163 168 173 182 183 183 183 189 197 205 214 204 196 211 195 201 199 173 174 174 174 173 174 181 191 225 265
241 103 102 120 124 147 116 131 149 162 137 137 142 147 150 142 137 150 165 169 157 166 174 180 184 185 179 183 173 182 195 203 216 213 199 200 197 201 182 171 176 180 182 179 181 187 198 220 245
99 104 102 118 139 123 127 162 165 166 140 140 142 149 156 160 158 169 184 161 158 180 180 174 188 158 168 159 173 181 192 199 198 195 180 181 179 174 157 166 178 187 180 190 187 195 207 229 232
131 114 116 114 146 157 153 186 169 162 138 140 143 156 163 162 162 174 179 162 162 176 175 179 146 131 147 125 199 192 175 187 182 176 185 170 163 161 173 181 182 186 187 196 199 197 205 217 227
128 120 132 164 173 153 174 168 147 137 139 144 150 161 170 176 177 178 158 172 159 168 179 198 157 130 132 152 115 155 155 156 153 159 177 169 168 171 177 191 193 197 193 202 201 201 187 216 217
131 132 161 166 152 201 138 134 208 158 148 151 157 166 179 188 174 172 170 161 157 176 188 184 150 137 146 168 169 171 189 161 154 172 160 163 169 175 181 189 207 208 203 195 191 202 213 210 227
5 45 52 176 169 213 126 206 212 158 144 156 161 170 180 191 173 175 167 158 164 176 172 160 154 154 171 176 181 185 174 190 151 206 179 165 163 174 177 203 205 211 186 204 166 172 233 226 134
355 123 304 325 317 252 145 216 284 148 152 160 162 173 176 191 184 164 164 167 166 171 158 167 162 162 176 171 186 180 204 216 152 202 198 177 179 182 173 194 203 174 153 155 163 178 168 145 165
176 254 293 268 328 358 112 234 205 167 163 165 163 173 174 178 179 159 165 169 171 162 163 178 174 168 173 161 166 170 191 244 190 184 183 173 186 191 183 192 180 156 155 148 160 189 190 166 187
170 176 228 335 325 338 297 290 2 261 175 166 170 175 180 178 182 160 155 165 165 160 164 181 140 163 156 159 159 174 186 216 168 114 155 161 181 199 187 200 174 178 143 146 222 159 181 248 160
186 163 102 8 333 304 291 28 32 322 299 296 174 180 182 181 170 159 153 145 148 161 166 162 146 152 163 168 178 180 160 100 92 89 51 178 183 191 195 197 181 181 150 172 203 181 167 223 197
186 174 172 155 214 265 246 196 137 245 264 282 217 189 183 177 166 162 160 160 156 163 166 166 158 162 167 180 166 119 76 77 152 133 193 215 194 200 196 201 199 162 163 171 178 181 176 207 226
237 184 186 213 186 199 198 138 221 197 250 239 200 186 187 177 165 164 167 172 159 167 166 170 153 167 171 173 150 145 144 165 229 84 67 355 249 200 194 190 178 119 144 161 186 194 211 166 201
241 154 195 179 184 169 192 107 158 199 227 221 207 192 181 177 174 168 174 174 168 165 171 173 155 164 171 174 177 166 154 169 116 120 125 214 291 278 201 184 167 165 160 193 182 230 285 201 177
290 317 287 236 222 283 208 111 298 246 213 241 187 201 196 175 176 174 176 178 175 170 169 170 165 175 171 173 173 175 172 135 120 157 121 50 21 358 9 336 170 168 170 201 191 218 248 218 221
230 311 316 336 342 135 84 66 276 263 245 233 217 213 234 179 176 176 177 182 175 170 172 173 175 175 177 176 166 175 183 136 141 139 103 103 93 123 353 340 4 289 187 192 214 225 221 204 211
227 201 168 237 256 146 116 156 231 224 237 230 257 281 279 174 175 180 179 177 175 171 173 175 178 181 180 175 169 170 171 147 156 125 123 147 149 157 162 264 318 344 254 207 192 183 225 232 226
261 279 240 234 276 31 146 235 320 203 244 258 250 230 251 178 177 179 178 170 175 172 175 173 177 179 178 175 161 161 165 150 123 133 154 173 163 163 166 193 185 294 297 217 189 196 233 240 220
170 227 305 315 249 267 210 174 187 199 238 227 246 244 246 197 175 177 177 166 172 172 169 169 174 175 177 166 165 162 159 165 128 149 154 183 200 140 137 151 191 252 279 219 173 204 253 214 240
169 222 263 201 171 186 226 272 204 188 258 209 284 192 219 174 168 172 175 162 170 166 155 164 169 167 168 166 166 151 160 166 139 153 167 190 155 154 188 185 198 227 250 214 204 228 248 222 242
187 196 197 141 283 221 177 225 190 174 210 164 216 216 174 170 169 166 169 159 166 157 155 161 166 168 172 172 163 165 161 169 152 164 186 193 164 198 205 208 222 225 244 196 199 224 223 218 251